www.pogodaiklimat.ru

Погода и климат >> Архив погоды >> Италия >> Устика


ПОГОДА на Устике

  • Прогноз погоды на Устике
  • Монитор погоды на Устике

АРХИВ ПОГОДЫ на Устике

Время (UTC), дата Ветер
(напр.,м/с)
 
Видим.   Явления Облачность Т
(С)
Тd
(С)
f
(%)
Тe
(С)
Тes
(С)
Комфортность P
(гПа)
Po
(гПа)
Тmin
(С)
Tmax
(С)
R
(мм)
R24
(мм)
S
(см)
10 10.07 ЮЗ 7 10 км 9/8 400 м
[Cu med, cong Ac trans]
+25.4 +21.8 80 +33 +33 очень
душно
1010.4 982.8
11 10.07 ЮЗ 6 10 км 8/6 400 м
[Cu med, cong Ac trans]
+26.6 +22.8 80 +35 +37 очень
душно
1010.2 982.7
12 10.07 нст 6 10 км 8/8 480 м
[Cu med, cong]
+27.4 +23.6 80 +37 +39 очень
душно
1010.0 982.6
13 10.07 10 км 8/8 400 м
[Cu hum]
+27.6 +24.1 81 1010.1 982.7
14 10.07 10 км 8/8 450 м
[Cu med, cong]
+26.6 +23.3 82 1010.2 982.7
15 10.07 нст 2 10 км 6/6 480 м
[Cu med, cong]
+26.4 +23.4 84 +36 +39 очень
душно
1010.4 982.9
16 10.07 20 км 5/5 500 м
[Cu med, cong]
+26.0 +23.0 84 1010.6 983.1
17 10.07 СЗ 5 20 км 5/5 500 м
[Cu med, cong]
+26.0 +23.0 84 +35 +35 очень
душно
1010.6 983.1
18 10.07 нст 3 20 км 1/1 660 м
[Cu hum]
+25.4 +22.4 83 +33 +33 очень
душно
1010.6 983.0 +28.2
06 11.07 С 2 20 км ясно +26.2 +22.1 78 +34 +38 очень
душно
1012.8 985.3 +24.6
07 11.07 20 км ясно +27.4 +22.2 73 1012.7 985.3
08 11.07 С 2 20 км ясно +27.6 +22.1 72 +36 +49 очень
душно
1013.0 985.6
09 11.07 нст 1 20 км ясно +28.6 +21.7 66 +37 +55 опасность
солнечного
удара
1013.2 985.9
10 11.07 20 км 3/3 660 м
[Cu hum]
+28.0 +21.3 67 1013.7 986.3
11 11.07 20 км 3/1 660 м
[Cu hum]
+26.8 +20.6 69 1013.9 986.4
12 11.07 нст 1 20 км ясно +26.4 +21.1 73 +33 +56 опасность
солнечного
удара
1014.1 986.5
13 11.07 20 км 3/3 660 м
[Cu hum]
+26.6 +21.3 73 1013.6 986.0
14 11.07 20 км ясно +27.4 +22.5 75 1013.4 985.9
15 11.07 нст 2 20 км 4/4 480 м
[Cu med, cong]
+27.4 +22.5 75 +36 +42 очень
душно
1013.4 985.9
16 11.07 20 км 3/3 600 м
[Cu hum]
+27.4 +23.3 78 1013.4 985.9
17 11.07 20 км ясно +26.6 +22.5 78 1013.4 985.8
18 11.07 С 2 20 км ясно +26.0 +22.7 82 +34 +34 очень
душно
1013.7 986.1 +28.8
06 12.07 З 2 20 км 1/1 600 м
[Cu hum]
+25.2 +22.7 86 +33 +36 очень
душно
1014.3 986.6 +23.2
07 12.07 З 2 20 км 4/4 660 м
[Cu med, cong]
+26.2 +22.7 81 +35 +39 очень
душно
1014.2 986.6
08 12.07 20 км 4/4 600 м
[Cu med, cong]
+26.6 +23.3 82 1014.1 986.6
09 12.07 нст 2 20 км 4/4 480 м
[Cu med, cong]
+27.6 +23.8 80 +38 +48 очень
душно
1014.5 987.0
10 12.07 ЮЗ 4 20 км 3/3 600 м
[Cu hum]
+27.4 +23.3 78 +37 +47 очень
душно
1014.4 986.9
11 12.07 ЮЗ 4 20 км 5/5 480 м
[Cu med, cong]
+27.4 +23.6 80 +37 +45 очень
душно
1014.3 986.8
12 12.07 нст 3 20 км 4/4 480 м
[Cu med, cong]
+28.4 +24.7 80 +40 +50 очень
душно
1013.9 986.5
13 12.07 З 3 20 км 4/4 600 м
[Cu med, cong]
+28.2 +23.9 78 +39 +48 очень
душно
1013.9 986.5
14 12.07 З 3 20 км 4/4 600 м
[Cu med, cong]
+28.2 +23.9 78 +39 +45 очень
душно
1013.6 986.2
15 12.07 нст 3 20 км ясно +28.2 +23.3 75 +38 +46 очень
душно
1013.3 985.9
16 12.07 ЮЗ 4 20 км ясно +26.8 +24.1 85 +37 +40 очень
душно
1012.9 985.4
17 12.07 ЮЗ 5 20 км ясно +26.2 +23.8 87 +36 +37 очень
душно
1012.9 985.3
18 12.07 З 5 20 км ясно +25.4 +22.7 85 +33 +34 очень
душно
1013.2 985.6 +29.0
06 13.07 Ю 4 20 км ясно +25.2 +21.0 78 +32 +34 очень
душно
1012.6 984.9 +23.8
07 13.07 Ю 4 20 км ясно +26.2 +22.1 78 +34 +39 очень
душно
1012.3 984.7
08 13.07 Ю 5 20 км ясно +27.2 +23.1 78 +36 +43 очень
душно
1011.6 984.1
09 13.07 Ю 6 20 км ясно +27.6 +23.8 80 +38 +45 очень
душно
1012.1 984.7
10 13.07 ЮЗ 6 20 км 6/6 480 м
[Cu med, cong]
+27.8 +24.6 83 +39 +43 очень
душно
1012.5 985.1
11 13.07 20 км 4/4 480 м
[Cu med, cong]
+29.2 +25.2 79 1011.9 984.6
12 13.07 З 4 20 км 4/4 600 м
[Cu med, cong]
+29.4 +24.0 73 +41 +49 опасность
перегрева
1011.7 984.4
13 13.07 З 5 20 км 4/4 600 м
[Cu med, cong]
+29.4 +23.8 72 +40 +46 очень
душно
1011.6 984.3
14 13.07 ЮЗ 6 20 км ясно +29.4 +23.2 69 +39 +44 очень
душно
1011.2 983.9
15 13.07 ЮЗ 5 20 км ясно +29.0 +21.6 64 +37 +42 очень
душно
1010.4 983.1
16 13.07 ЮЗ 6 20 км ясно +27.2 +22.3 75 +36 +37 очень
душно
1010.0 982.6
17 13.07 ЮЗ 6 20 км 3/0
[Ac trans]
+26.0 +22.7 82 +34 +35 очень
душно
1009.8 982.3
18 13.07 ЮЗ 6 20 км 4/0
[Ci sp]
+25.2 +22.5 85 +33 +33 очень
душно
1009.9 982.3 +30.0
06 14.07 С 2 20 км 5/5 480 м
[Cu med, cong]
+26.2 +22.3 79 +34 +36 очень
душно
1009.3 981.8 +23.8
07 14.07 С 2 20 км 6/6 480 м
[Cu med, cong]
+27.2 +23.4 80 +37 +40 очень
душно
1009.6 982.2
08 14.07 С 2 20 км 5/5 480 м
[Cu med, cong]
+28.0 +24.0 79 +39 +45 очень
душно
1010.2 982.9
09 14.07 С 2 20 км 6/6 480 м
[Cu med, cong]
+29.2 +24.7 77 +42 +49 опасность
перегрева
1010.8 983.6
10 14.07 20 км 6/6 480 м
[Cu med, cong]
+29.6 +24.5 74 1010.5 983.3
11 14.07 С 2 20 км 6/6 480 м
[Cu med, cong]
+30.2 +23.8 69 +42 +50 опасность
перегрева
1010.8 983.7
12 14.07 нст 2 20 км 6/6 480 м
[Cu med, cong]
+29.4 +23.8 72 +40 +49 очень
душно
1011.0 983.8
13 14.07 10 км 9/9 400 м
[Cu med, cong]
+27.0 +22.3 75 1010.4 983.0
14 14.07 10 км 9/5 480 м
[Cu med, cong Ac trans]
+26.4 +22.3 78 1010.0 982.5
15 14.07 В 3 10 км 9/5 480 м
[Cu med, cong Ac trans]
+26.4 +23.1 82 +35 +37 очень
душно
1009.5 982.1
16 14.07 В 2 10 км 8/4 400 м
[Cu med, cong Ac trans]
+26.2 +23.2 84 +35 +37 очень
душно
1008.9 981.4
17 14.07 В 3 10 км 8/4 480 м
[Cu med, cong Ac trans]
+26.2 +22.9 82 +35 +35 очень
душно
1008.5 981.1
18 14.07 СВ 2 10 км 9/4 400 м
[Cu med, cong Ac trans]
+25.6 +22.9 85 +34 +34 очень
душно
1009.2 981.7 +31.4
06 15.07 ЮЗ 8 10 км 8/8 480 м
[Cu med, cong]
+24.2 +20.2 78 +30 +30 очень
душно
1006.1 978.5 +23.6
07 15.07 ЮЗ 6 10 км 8/8 400 м
[Cu med, cong]
+25.0 +22.0 83 +32 +33 очень
душно
1006.4 978.9
08 15.07 ЮЗ 5 10 км 8/8 480 м
[Cu med, cong]
+26.4 +23.4 84 +36 +37 очень
душно
1006.3 978.9
09 15.07 ЮЗ 6 10 км 6/6 480 м
[Cu med, cong]
+26.8 +23.0 80 +36 +38 очень
душно
1006.2 978.9
10 15.07 ЮЗ 6 20 км 5/5 480 м
[Cu med, cong]
+27.6 +22.7 75 +37 +40 очень
душно
1006.2 978.9
11 15.07 ЮЗ 6 20 км ясно +28.0 +24.2 80 +39 +48 очень
душно
1005.2 978.1
12 15.07 З 4 20 км 4/4 900 м
[Cu hum]
+28.0 +22.0 70 +36 +44 очень
душно
1005.6 978.5
13 15.07 З 4 20 км ясно +29.0 +23.0 70 +39 +50 очень
душно
1005.6 978.5
14 15.07 20 км 3/3 900 м
[Cu hum]
+29.0 +24.1 75 1005.0 977.9
15 15.07 нст 3 20 км 3/0 900 м
[]
+27.0 +23.3 80 +36 +43 очень
душно
1006.3 979.0
16 15.07 С 4 20 км 3/3 900 м
[Cu hum]
+26.0 +22.3 80 +34 +36 очень
душно
1006.6 979.2
17 15.07 СЗ 5 20 км ясно +26.0 +20.1 70 +32 +33 очень
душно
1006.8 979.4
18 15.07 нст 2 20 км ясно +24.8 +21.7 83 +32 +32 очень
душно
1007.0 979.5
06 16.07 З 7 10 км гроза, ливневой дождь 10/1 750 м
[Cb calv]
+19.0 +16.2 84 +20 +20 1005.3 977.3 +18.8 3
07 16.07 СЗ 5 10 км 8/8 750 м
[Cu med, cong]
+19.2 +15.7 80 +20 +21 1005.2 977.2
08 16.07 С 6 10 км 8/8 900 м
[Cu med, cong]
+20.8 +17.2 80 +24 +25 комфорт 1005.4 977.6
09 16.07 С 4 10 км 8/8 900 м
[Cu med, cong]
+19.0 +15.5 80 +20 +23 1006.8 978.8
10 16.07 10 км 8/0
[As trans]
+22.0 +18.0 78 1007.7 980.0
11 16.07 С 4 20 км 5/1 600 м
[Cu hum As trans]
+29.4 +25.6 80 +43 +53 опасность
перегрева
1007.1 980.0
12 16.07 нст 3 10 км 5/5 900 м
[Cu hum]
+25.2 +20.2 74 +31 +39 очень
душно
1007.8 980.3
13 16.07 С 4 10 км 5/5 900 м
[Cu hum]
+27.0 +21.1 70 +34 +40 очень
душно
1009.0 981.7
14 16.07 10 км 4/4 900 м
[Cu hum]
+26.2 +20.3 70 1008.6 981.2
15 16.07 С 3 10 км 4/4 600 м
[Cu hum]
+25.4 +18.4 65 +30 +34 душно 1009.8 982.3
16 16.07 С 4 20 км 4/4 600 м
[Cu hum]
+25.2 +18.2 65 +30 +32 душно 1010.3 982.7
17 16.07 20 км 4/4 600 м
[Cu hum]
+24.4 +18.6 70 1010.6 982.9
18 16.07 С 3 20 км 4/4 900 м
[Cu hum]
+23.2 +18.5 75 +29 +29 душно 1011.6 983.8 +28.0
06 17.07 СЗ 3 20 км 1/1 600 м
[Cu hum]
+23.4 +20.3 83 +31 +33 очень
душно
1013.5 985.7 +22.2
07 17.07 СЗ 4 20 км ясно +24.6 +21.7 84 +31 +37 очень
душно
1013.6 985.9
08 17.07 С 3 20 км ясно +26.0 +22.7 82 +34 +45 очень
душно
1013.7 986.1
09 17.07 С 3 20 км 1/1 600 м
[Cu hum]
+27.4 +23.0 77 +37 +48 очень
душно
1013.7 986.2
10 17.07 С 3 20 км 1/1 600 м
[Cu hum]
+28.0 +23.6 77 +38 +54 опасность
солнечного
удара
1013.8 986.4

 

Местоположение метеостанции Устика (Италия): широта 38.70 долгота 13.18 высота над уровнем моря 251 м.

В архиве по умолчанию представлена погода на Устике за последнюю неделю. Архивные данные за месяц целиком и за предыдущие месяцы, начиная с января 2011 года, Вы можете получить, выбрав интересующий диапазон дат из раскрывающегося списка и нажав кнопку "Ввод!".


*Определитесь, кто Вы:
робот инопланетянин человек

Внимание! Время в таблицах - всемирное. Для получения местного времени необходимо прибавить поправку, которая равна 1 ч.

Смотрите также архив погоды в соседних городах и на ближайших метеорологических станциях:

Погода в Трапани (Италия) (105 км)
Погода в Джибилманне (Италия) (109 км)
Погода в Прицци (Италия) (111 км)
Погода на Острове Салина (Италия) (147 км)
Погода в Энне (Италия) (158 км)
Погода в Джеле (Италия) (202 км)
Погода в Катании (Италия) (210 км)
Погода в Аэропорту Фонтанаросса (Италия) (213 км)
Погода в Мессине (Италия) (214 км)
Погода на Капри (Италия) (224 км)

Пояснения к столбцам:

Ветер - указаны скорость ветра в м/с - средняя за 10 мин, порывы в срок и между сроками (в фигурных скобках) и направление, откуда дует ветер: С - северный, СВ - северо-восточный, В - восточный, ЮВ - юго-восточный, Ю - южный, ЮЗ - юго-западный, З - западный, СЗ - северо-западный.
Видимость - горизонтальная дальность видимости в метрах или километрах. При видимости от 1 до 10 км при отсутствии осадков обычно наблюдается дымка, при ухудшении видимости до 1 км и менее - туман. В сухую погоду видимость может ухудшаться дымом, пылью или мглою.
Явления - указаны атмосферные явления, наблюдавшиеся в срок или в последний час перед сроком; фигурными скобками обозначены явления, наблюдавшиеся между сроками (за 1-3 часа до срока); квадратными скобками обозначены град или гололедные отложения с указанием их диаметра в мм.
Облачность - указаны через наклонную черту общая и нижняя облачность в баллах и высота нижней границы облаков в метрах; квадратными скобками обозначены формы облаков: Ci - перистые, Cs - перисто-слоистые, Cc - перисто-кучевые, Ac - высококучевые, As - высокослоистые, Sc - слоисто-кучевые, Ns - слоисто-дождевые, Cu - кучевые, Cb - кучево-дождевые. Подробнее классификацию облаков см. в Атласе облаков (PDF).
T - Температура воздуха - температура, измеренная на высоте 2 м над землей.
Td - Температура точки росы - температура, при понижении до которой содержащийся в воздухе водяной пар достигнет насыщения.
f - Относительная влажность воздуха - влажноcть воздуха, измеренная на высоте 2 м над землей.
Te - Эффективная температура - температура, которую ощущает одетый по сезону человек в тени. Характеристика душности погоды. При расчете учитывается влияние влажности воздуха и скорости ветра на теплоощущения человека.
Tes - Эффективная температура на солнце - температура, которую ощущает человек, с поправкой на солнечный нагрев. Характеристика знойности погоды. Зависит от высоты солнца над горизонтом, облачности и скорости ветра. Ночью, в пасмурную погоду, а также при ветре 12 м/с и более поправка равна нулю.
P - Атмосферное давление - приведенное к уровню моря атмосферное давление.
Po - Атмосферное давление - измеренное на уровне метеостанции атмосферное давление.
Tmin - Минимальная температура - минимум температуры воздуха на высоте 2 м над землей.
Tmax - Максимальная температура - максимум температуры воздуха на высоте 2 м над землей.
R - Количество осадков - Количество выпавших осадков за период времени, мм. При наведении курсора мыши на число - период времени, за который выпало указанное количество осадков.
R24 - Количество осадков - Количество выпавших осадков за 24 часа, мм.
S - Снежный покров - Высота снежного покрова, см. При наведении курсора мыши на число - состояние снежного покрова и степень покрытия местности в баллах.